STARLINK-31768, 59616

Orbit data source: Space-Track

STARLINK-31768, 59616 is a payload satellite owned by SpaceX/Seattle (US) in LEO that was launched on Sun, 28 Apr 2024 UTC via an FALCON 9 launch vehicle from the Air Force Eastern Test Range (AFETR). Payload-class satellites include a variety of spacecraft equipped with specific instruments for various scientific and technological missions. These include communications satellites like Starlink; space stations such as the ISS; scientific satellites like the Hubble; Earth observation satellites from companies like Planet Labs, Umbra, and HawkEye 360; GPS; miniature CubeSats for education and research; and military/defense satellites.

Loading next visibility...
Identifier
59616, 2024-080R
Orbit
LEO
Country
Flag of USUS
Related business
Manufacturer
SpaceX/Seattle
Mission
Operational Commercial Communications
Bus & Motor
STARLINK V2M, Unknown motor
Mass
730 kg wet, ~700 kg dry
Launch date (UTC)
2024-04-28 (2 years ago)
Launch vehicle
FALCON 9
Launch site
Air Force Eastern Test Range (AFETR)
Object type
Payload
Rocket body
Debris
Shape & HBR
Box + 2 Pan, 17.7 m
Radar Cross Section
33.884 m², Large (>1 m²)

Expand to show TLE details & history
Last TLE update: 2 days ago

TLE from 2 days ago
0 STARLINK-31768
1 59616U 24080R   26171.09874421  .00001201  00000-0  53179-4 0  9996
2 59616  43.0020 179.6544 0001604 276.1838  83.8831 15.27579211120194
Epoch: 2026-06-20T02:22Z
TLE epoch observation values (Epoch: 2026-06-20T02:22:11.499Z)
Latitude
-0.00002°
Longitude
-124.21178°
Altitude
482.71 km
Speed
7.626 km/s
True Right ascension
11h 58m 37s
True Declination
0° 00' 00"
Sunlit
Object was in daylight at epoch
Visualization orbit readout
Latitude
Unknown
Longitude
Unknown
Altitude
Unknown
Speed
Unknown
Apparent Right ascension
Unknown
Apparent Declination
Unknown
Sunlit
N/A
Visualization observer readout
Local Sidereal Time
21:27:11
Azimuth
Unknown
Elevation
Unknown
Doppler factor
Unknown
Orbital elements
Apogee altitude
486.097 km
Perigee altitude
483.895 km
Semi-major axis
6,863.133 km
Eccentricity
0.00016
Inclination
43.002°
RAAN
179.6544°
Arg. of periapsis
276.1838°
True anomaly
83.90138°
Mean anomaly
83.8831°
Eccentric anomaly
83.89224°
Mean motion
3.81733 °/min
Orbital period
94.31 mins
BSTAR
0.000053179
Loading maneuver chart data...
Computing Atmospheric mass density...
Loading historical data...
Loading historical data...
Loading historical data...
Loading historical data...
Loading historical data...
Loading historical data...
Loading historical data...

Documentation

Showing up to 5 results
|